Regional Weather Roundup
Issued by NWS

Home | Current Version | Previous Version | Graphics & Text | Print | Product List | Glossary On
Versions: 1 2 3 4 5 6 7 8 9 10 11 12 13 14 15 16 17 18 19 20 21 22 23 24 25 26 27 28
000
ASUS45 KPSR 210010
RWRAZ

ARIZONA HOURLY REGIONAL WEATHER ROUNDUP
NATIONAL WEATHER SERVICE PHOENIX AZ
500 PM MST MON FEB 20 2017

NOTE: FAIR INDICATES FEW OR NO CLOUDS BELOW 12,000 FEET WITH NO
SIGNIFICANT WEATHER AND/OR OBSTRUCTIONS TO VISIBILITY.

AZZ001>003-036-210100-
NORTHWEST ARIZONA

CITY           SKY/WX    TMP DP  RH WIND       PRES   REMARKS
BULLHEAD CITY  PTSUNNY   66  48  52 S15       30.19S
KINGMAN        MOSUNNY   57  35  43 SW15      30.24R
6HR MIN TEMP:  51; 6HR MAX TEMP:  60;

$$

AZZ004>008-015-016-018-210100-
NORTH CENTRAL ARIZONA

CITY           SKY/WX    TMP DP  RH WIND       PRES   REMARKS
GRAND CANYON   CLOUDY    46  39  76 SW10      30.28R
6HR MIN TEMP:  38; 6HR MAX TEMP:  47;

WILLIAMS       MOSUNNY   48  37  66 SW7       30.29S
PRESCOTT       MOSUNNY   56  40  55 CALM      30.27S
6HR MIN TEMP:  47; 6HR MAX TEMP:  57;

FLAGSTAFF      SUNNY     47  35  63 VRB5      30.30R
6HR MIN TEMP:  39; 6HR MAX TEMP:  49;

PAYSON         MOSUNNY   52  41  66 VRB7      30.31S
PAGE           CLOUDY    54  34  46 CALM      30.18F
6HR MIN TEMP:  49; 6HR MAX TEMP:  55;

$$

AZZ009>014-017-210100-
NORTHEAST ARIZONA

CITY           SKY/WX    TMP DP  RH WIND       PRES   REMARKS
WINSLOW        SUNNY     59  36  42 VRB3      30.24R
6HR MIN TEMP:  50; 6HR MAX TEMP:  61;

SAINT JOHNS    SUNNY     57  30  35 N3        30.24S
6HR MIN TEMP:  45; 6HR MAX TEMP:  58;

WINDOW ROCK    SUNNY     50  32  50 W7        30.27R
6HR MIN TEMP:  40; 6HR MAX TEMP:  51;

SHOW LOW       SUNNY     52  34  50 SW7       30.29R
$$

AZZ023-210100-
GREATER PHOENIX AREA

CITY           SKY/WX    TMP DP  RH WIND       PRES   REMARKS
PHOENIX        MOSUNNY   68  47  46 VRB3      30.21S
6HR MIN TEMP:  60; 6HR MAX TEMP:  68;

BUCKEYE        SUNNY     66  48  52 CALM      30.23S
GLENDALE       MOSUNNY   68  48  49 CALM      30.23F
LUKE AFB       SUNNY     67  48  50 W3        30.21S
6HR MIN TEMP:  61; 6HR MAX TEMP:  67;

DEER VALLEY    SUNNY     66  46  48 VRB3      30.21S
6HR MIN TEMP:  58; 6HR MAX TEMP:  67;

SCOTTSDALE     PTSUNNY   67  45  45 SW5       30.24R
6HR MIN TEMP:  60; 6HR MAX TEMP:  67;

MESA-FALCON    MOSUNNY  N/A N/A N/A NW6       30.20R
CHANDLER       MOSUNNY   66  46  48 S7        30.23R
$$

AZZ027-028-210100-
SOUTHWEST MARICOPA COUNTY AND PINAL COUNTY

CITY           SKY/WX    TMP DP  RH WIND       PRES   REMARKS
CASA GRANDE    NOT AVBL
GILA BEND      FAIR      68  49  49 VRB3      30.21S
6HR MIN TEMP:  60; 6HR MAX TEMP:  69;

$$

AZZ503-504-507>509-210100-
SOUTHEAST ARIZONA

CITY           SKY/WX    TMP DP  RH WIND       PRES   REMARKS
TUCSON         SUNNY     68  41  37 VRB6      30.25R
6HR MIN TEMP:  59; 6HR MAX TEMP:  68;

DAVIS-MONTHAN  SUNNY     65  42  44 NW6       30.24R
6HR MIN TEMP:  57; 6HR MAX TEMP:  65;

RYAN FIELD     SUNNY     66  43  42 NW6       30.24F
NOGALES        SUNNY     64  38  38 NW9       30.24R
6HR MIN TEMP:  55; 6HR MAX TEMP:  66;

SIERRA VISTA   SUNNY     62  37  40 N5        30.27R
6HR MIN TEMP:  52; 6HR MAX TEMP:  63;

DOUGLAS        SUNNY     63  38  39 N6        30.25R
6HR MIN TEMP:  52; 6HR MAX TEMP:  64;

SAFFORD        SUNNY     65  38  36 NW12      30.19S
6HR MIN TEMP:  58; 6HR MAX TEMP:  66;

$$

AZZ020-021-025-026-031-210100-
SOUTHWEST ARIZONA

CITY           SKY/WX    TMP DP  RH WIND       PRES   REMARKS
YUMA           SUNNY     71  50  47 S9        30.19S
6HR MIN TEMP:  64; 6HR MAX TEMP:  72;

$$

CAZ031-033-041-043-047-048-061-210100-
SOUTHERN CALIFORNIA

CITY           SKY/WX    TMP DP  RH WIND       PRES   REMARKS
DOWNTOWN L.A.  CLOUDY    63  54  72 CALM      30.24R
6HR MIN TEMP:  56; 6HR MAX TEMP:  64;

L.A. AIRPORT   CLOUDY    59  55  87 CALM      30.25R
6HR MIN TEMP:  54; 6HR MAX TEMP:  61;

SAN DIEGO      MOSUNNY   66  51  58 NW8       30.25R
6HR MIN TEMP:  62; 6HR MAX TEMP:  69;

BURBANK        CLOUDY    60  51  72 S9        30.24R
6HR MIN TEMP:  54; 6HR MAX TEMP:  60;

ONTARIO        PTSUNNY   62  52  69 SW7       30.22S
6HR MIN TEMP:  53; 6HR MAX TEMP:  64;

RIVERSIDE      PTSUNNY   63  54  72 W3        30.22S
6HR MIN TEMP:  56; 6HR MAX TEMP:  66;

PALM SPRINGS   SUNNY     69  54  58 SE8       30.21S
6HR MIN TEMP:  63; 6HR MAX TEMP:  70;

EL CENTRO NAS  SUNNY     73  51  46 CALM      30.19S
6HR MIN TEMP:  62; 6HR MAX TEMP:  74;

IMPERIAL       SUNNY     73  54  51 E6        30.17S
6HR MIN TEMP:  61; 6HR MAX TEMP:  74;

BLYTHE         SUNNY     70  52  52 S10       30.19S
6HR MIN TEMP:  60; 6HR MAX TEMP:  71;

NEEDLES        PTSUNNY   68  51  54 S7        30.20R
6HR MIN TEMP:  63; 6HR MAX TEMP:  69;

$$

NVZ020-UTZ003-210100-
SOUTHERN NEVADA-UTAH

CITY           SKY/WX    TMP DP  RH WIND       PRES   REMARKS
LAS VEGAS      MOSUNNY   64  45  49 SE12G21   30.10R
6HR MIN TEMP:  60; 6HR MAX TEMP:  66;

SALT LAKE CITY PTSUNNY   55  35  47 S26G37    29.94F
6HR MIN TEMP:  51; 6HR MAX TEMP:  55;

$$

NMZ009-TXZ055-210100-
NEW MEXICO-WEST TEXAS

CITY           SKY/WX    TMP DP  RH WIND       PRES   REMARKS
ALBUQUERQUE    CLEAR     60  26  27 N12G21    30.20R
6HR MIN TEMP:  50; 6HR MAX TEMP:  60;

EL PASO        SUNNY     66  19  16 W13       30.16S
6HR MIN TEMP:  58; 6HR MAX TEMP:  68;

$$


........................KEY........................
SKY/WX - SKY CONDITION/WEATHER
TMP    - TEMPERATURE IN FAHRENHEIT
DP     - DEW POINT IN FAHRENHEIT
RH     - RELATIVE HUMIDITY IN PERCENT
WIND   - DIRECTION AND SPEED IN MILES PER HOUR (MPH)
VRB    - VARIABLE WIND DIRECTION
PRES   - MEAN SEA LEVEL PRESSURE IN INCHES OF MERCURY
         F - FALLING PRESSURE   R - RISING PRESSURE
         S - STEADY PRESSURE
VSB    - VISIBILITY IN MILES
HX     - HEAT INDEX IN FAHRENHEIT
WCI    - WIND CHILL INDEX IN FAHRENHEIT
TC     - TEMPERATURE IN CELSIUS WHICH IS ALSO KNOWN AS
         TEMPERATURE IN CENTIGRADE
AFB    - AIR FORCE BASE
         LUKE AFB IS LUKE AIR FORCE BASE
         DAVIS-MONTHAN IS DAVIS-MONTHAN AIR FORCE BASE
NAS    - NAVAL AIR STATION
         EL CENTRO NAS IS EL CENTRO NAVAL AIR STATION
N/A    - NOT AVAILABLE





USA.gov is the U.S. government's official web portal to all federal, state and local government web resources and services.